TimeCDT,TemperatureF,Dew PointF,Humidity,Sea Level PressureIn,VisibilityMPH,Wind Direction,Wind SpeedMPH,Gust SpeedMPH,PrecipitationIn,Events,Conditions,WindDirDegrees,DateUTC
12:15 AM,46.4,46.4,100,29.99,7.0,Calm,Calm,-,N/A,,Clear,0,2012-10-21 05:15:00
12:35 AM,45.9,45.9,100,30.00,7.0,Calm,Calm,-,N/A,,Clear,0,2012-10-21 05:35:00
12:55 AM,46.0,46.0,100,30.00,10.0,Calm,Calm,-,N/A,,Clear,0,2012-10-21 05:55:00
1:15 AM,46.0,46.0,100,30.00,2.0,Calm,Calm,-,N/A,,Clear,0,2012-10-21 06:15:00
1:35 AM,45.7,45.7,100,30.00,2.5,Calm,Calm,-,N/A,,Clear,0,2012-10-21 06:35:00
1:55 AM,45.0,45.0,100,30.00,1.2,Calm,Calm,-,N/A,,Mist,0,2012-10-21 06:55:00
2:15 AM,45.0,45.0,100,30.01,7.0,Calm,Calm,-,N/A,,Clear,0,2012-10-21 07:15:00
2:35 AM,45.5,45.5,100,30.01,10.0,Calm,Calm,-,N/A,,Clear,0,2012-10-21 07:35:00
2:55 AM,44.8,44.8,100,30.01,7.0,Calm,Calm,-,N/A,,Clear,0,2012-10-21 07:55:00
3:15 AM,45.5,45.3,99,30.02,7.0,Calm,Calm,-,N/A,,Clear,0,2012-10-21 08:15:00
3:35 AM,44.4,44.4,100,30.03,10.0,Calm,Calm,-,N/A,,Clear,0,2012-10-21 08:35:00
3:55 AM,43.7,43.7,100,30.03,5.0,Calm,Calm,-,N/A,,Clear,0,2012-10-21 08:55:00
4:15 AM,43.5,43.5,100,30.03,7.0,Calm,Calm,-,N/A,,Clear,0,2012-10-21 09:15:00
4:35 AM,43.9,43.9,100,30.03,10.0,Calm,Calm,-,N/A,,Clear,0,2012-10-21 09:35:00
4:55 AM,43.7,43.7,100,30.04,10.0,Calm,Calm,-,N/A,,Clear,0,2012-10-21 09:55:00
5:15 AM,43.9,43.9,100,30.04,7.0,Calm,Calm,-,N/A,,Clear,0,2012-10-21 10:15:00
5:35 AM,42.4,42.4,100,30.04,5.0,Calm,Calm,-,N/A,,Clear,0,2012-10-21 10:35:00
5:55 AM,42.3,42.3,100,30.04,7.0,Calm,Calm,-,N/A,,Clear,0,2012-10-21 10:55:00
6:15 AM,41.5,41.5,100,30.05,7.0,Calm,Calm,-,N/A,,Clear,0,2012-10-21 11:15:00
6:35 AM,41.9,41.9,100,30.05,7.0,Calm,Calm,-,N/A,,Clear,0,2012-10-21 11:35:00
6:55 AM,42.6,42.6,100,30.05,7.0,Calm,Calm,-,N/A,,Clear,0,2012-10-21 11:55:00
7:15 AM,42.8,42.8,100,30.06,10.0,Calm,Calm,-,N/A,,Clear,0,2012-10-21 12:15:00
7:35 AM,43.9,43.9,100,30.06,10.0,Calm,Calm,-,N/A,,Clear,0,2012-10-21 12:35:00
7:55 AM,45.9,45.9,100,30.06,7.0,Calm,Calm,-,N/A,,Clear,0,2012-10-21 12:55:00
8:15 AM,50.7,50.4,99,30.07,10.0,South,3.5,-,N/A,,Clear,170,2012-10-21 13:15:00
8:35 AM,54.3,50.9,88,30.07,10.0,South,5.8,-,N/A,,Clear,170,2012-10-21 13:35:00
8:55 AM,56.3,51.1,83,30.08,10.0,South,8.1,-,N/A,,Clear,170,2012-10-21 13:55:00
9:15 AM,57.9,50.7,77,30.08,10.0,South,6.9,-,N/A,,Clear,180,2012-10-21 14:15:00
9:35 AM,59.4,50.7,73,30.07,10.0,South,8.1,-,N/A,,Clear,180,2012-10-21 14:35:00
9:55 AM,61.9,52.2,70,30.08,10.0,South,8.1,-,N/A,,Clear,190,2012-10-21 14:55:00
10:15 AM,63.0,51.4,66,30.07,10.0,South,8.1,-,N/A,,Clear,180,2012-10-21 15:15:00
10:35 AM,65.5,52.3,62,30.07,10.0,South,8.1,-,N/A,,Clear,180,2012-10-21 15:35:00
10:55 AM,67.6,51.8,57,30.07,10.0,South,9.2,-,N/A,,Clear,190,2012-10-21 15:55:00
11:15 AM,70.0,51.1,51,30.07,10.0,South,11.5,16.1,N/A,,Clear,190,2012-10-21 16:15:00
11:35 AM,71.1,50.5,48,30.07,10.0,SSW,10.4,-,N/A,,Clear,200,2012-10-21 16:35:00
12:15 PM,73.4,52.2,47,30.06,10.0,South,8.1,-,N/A,,Clear,180,2012-10-21 17:15:00
12:35 PM,73.9,52.5,47,30.05,10.0,South,9.2,-,N/A,,Clear,180,2012-10-21 17:35:00
12:55 PM,75.0,53.8,47,30.04,10.0,SSW,5.8,-,N/A,,Clear,200,2012-10-21 17:55:00
1:15 PM,75.6,54.0,47,30.04,10.0,South,6.9,-,N/A,,Clear,190,2012-10-21 18:15:00
1:35 PM,76.5,55.6,48,30.03,10.0,SSW,6.9,-,N/A,,Clear,210,2012-10-21 18:35:00
1:55 PM,77.2,56.5,49,30.02,10.0,South,5.8,-,N/A,,Clear,190,2012-10-21 18:55:00
2:15 PM,77.4,57.6,50,30.02,10.0,SSW,8.1,-,N/A,,Clear,200,2012-10-21 19:15:00
2:35 PM,77.9,57.4,49,30.01,10.0,South,8.1,-,N/A,,Clear,180,2012-10-21 19:35:00
2:55 PM,78.4,57.7,49,30.01,10.0,South,9.2,-,N/A,,Clear,180,2012-10-21 19:55:00
3:15 PM,78.8,57.7,48,30.01,10.0,South,10.4,-,N/A,,Clear,180,2012-10-21 20:15:00
3:35 PM,79.2,58.1,48,30.00,10.0,South,6.9,-,N/A,,Clear,170,2012-10-21 20:35:00
3:55 PM,78.8,58.3,49,30.00,10.0,South,5.8,-,N/A,,Clear,190,2012-10-21 20:55:00
4:15 PM,78.3,58.6,51,30.00,10.0,South,5.8,-,N/A,,Clear,180,2012-10-21 21:15:00
4:35 PM,77.7,59.2,53,30.00,10.0,SSW,5.8,-,N/A,,Mostly Cloudy,200,2012-10-21 21:35:00
4:55 PM,77.0,59.9,55,30.00,10.0,South,4.6,-,N/A,,Overcast,180,2012-10-21 21:55:00
5:15 PM,76.3,60.4,58,30.01,10.0,South,4.6,-,N/A,,Overcast,170,2012-10-21 22:15:00
5:35 PM,76.1,60.4,58,30.00,10.0,SSE,3.5,-,N/A,,Overcast,160,2012-10-21 22:35:00
5:55 PM,75.2,60.8,61,30.00,10.0,South,4.6,-,N/A,,Overcast,170,2012-10-21 22:55:00
6:15 PM,75.2,60.4,60,30.01,10.0,Calm,Calm,-,N/A,,Overcast,0,2012-10-21 23:15:00
6:35 PM,75.2,60.1,59,30.01,10.0,Calm,Calm,-,N/A,,Overcast,0,2012-10-21 23:35:00
6:55 PM,74.5,60.3,61,30.02,10.0,Calm,Calm,-,N/A,,Overcast,0,2012-10-21 23:55:00
7:15 PM,72.7,61.2,67,30.03,10.0,Calm,Calm,-,N/A,,Overcast,0,2012-10-22 00:15:00
7:35 PM,72.1,61.0,68,30.03,10.0,Calm,Calm,-,N/A,,Overcast,0,2012-10-22 00:35:00
7:55 PM,73.2,59.9,63,30.03,10.0,SSE,3.5,-,N/A,,Overcast,160,2012-10-22 00:55:00
8:15 PM,72.5,60.1,65,30.02,10.0,South,5.8,-,N/A,,Overcast,180,2012-10-22 01:15:00
8:35 PM,73.2,59.0,61,30.03,10.0,SSW,6.9,-,N/A,,Overcast,200,2012-10-22 01:35:00
8:55 PM,72.5,59.0,62,30.02,10.0,SSW,8.1,-,N/A,,Overcast,200,2012-10-22 01:55:00
9:15 PM,72.0,59.0,64,30.03,10.0,South,5.8,-,N/A,,Mostly Cloudy,180,2012-10-22 02:15:00
9:35 PM,71.6,58.8,64,30.04,10.0,South,5.8,-,N/A,,Overcast,170,2012-10-22 02:35:00
9:55 PM,71.2,59.0,65,30.04,10.0,South,4.6,-,N/A,,Overcast,180,2012-10-22 02:55:00
10:15 PM,70.7,59.0,66,30.05,10.0,South,4.6,-,N/A,,Overcast,190,2012-10-22 03:15:00
10:35 PM,70.3,58.8,67,30.05,10.0,South,4.6,-,N/A,,Overcast,180,2012-10-22 03:35:00
10:55 PM,70.3,58.1,65,30.05,10.0,South,4.6,-,N/A,,Overcast,170,2012-10-22 03:55:00
11:15 PM,70.7,55.9,59,30.05,10.0,SSW,6.9,-,N/A,,Overcast,200,2012-10-22 04:15:00
11:35 PM,71.8,53.2,52,30.05,10.0,SSW,8.1,-,N/A,,Overcast,200,2012-10-22 04:35:00
11:55 PM,71.4,52.7,52,30.05,10.0,South,6.9,-,N/A,,Overcast,190,2012-10-22 04:55:00